Date,TemperatureHighF,TemperatureAvgF,TemperatureLowF,DewpointHighF,DewpointAvgF,DewpointLowF,HumidityHigh,HumidityAvg,HumidityLow,PressureMaxIn,PressureMinIn,WindSpeedMaxMPH,WindSpeedAvgMPH,GustSpeedMaxMPH,PrecipitationSumIn
2013-1-1,74.8,68.8,60.4,67.6,64.8,58.3,97,87,76,30.12,29.97,11,2,12,0.01
2013-1-2,66.7,55.9,48.6,65.3,51.2,44.6,96,85,65,30.18,29.98,13,3,14,0.01
2013-1-3,48.7,44.0,37.4,45.1,41.6,33.8,96,91,84,30.35,30.16,12,2,13,0.29
2013-1-4,56.1,44.6,35.2,42.3,35.5,30.9,91,72,41,30.42,30.32,13,2,13,0.00
2013-1-5,55.8,48.7,40.5,44.4,36.7,31.3,85,64,47,30.39,30.23,8,1,8,0.00
2013-1-6,55.2,51.0,47.8,46.2,42.3,37.9,87,72,59,30.29,30.17,13,2,13,0.00
2013-1-7,63.1,50.9,40.1,46.0,40.8,37.6,92,70,43,30.33,30.22,10,1,11,0.00
2013-1-8,64.4,57.7,46.8,59.5,52.0,40.6,87,81,75,30.28,30.18,9,1,9,0.00
2013-1-9,69.6,66.6,63.5,67.5,64.4,59.2,97,93,86,30.29,30.19,14,1,18,0.01
2013-1-10,70.2,66.9,64.0,68.2,65.8,63.0,98,96,93,30.29,30.12,19,3,19,0.53
2013-1-11,73.4,68.5,63.1,69.6,66.6,61.9,98,94,87,30.19,30.09,14,2,15,0.53
2013-1-12,74.1,69.2,66.6,69.3,67.5,66.0,99,94,83,30.15,30.02,13,2,13,0.01
2013-1-13,73.2,70.3,67.8,70.2,68.7,67.3,98,95,89,30.06,29.98,16,2,16,0.00
2013-1-14,75.7,71.1,69.3,71.2,69.4,68.0,99,95,85,30.13,30.04,12,2,12,0.00
2013-1-15,75.0,71.1,68.2,71.2,69.1,66.7,97,93,88,30.07,29.96,18,2,18,0.04
2013-1-16,73.6,62.2,49.8,70.7,61.0,48.7,98,96,89,30.02,29.95,15,2,15,0.35
2013-1-17,49.6,44.0,40.3,48.7,39.2,34.5,97,83,71,30.31,30.01,27,6,27,0.06
2013-1-18,59.0,45.3,35.2,39.7,36.7,33.6,95,74,41,30.51,30.30,14,2,14,0.00
2013-1-19,63.9,49.3,34.7,49.5,41.4,32.9,96,76,54,30.42,30.25,10,1,11,0.00
2013-1-20,66.2,51.9,40.5,48.7,44.7,39.2,97,79,48,30.28,30.13,11,1,11,0.00
2013-1-21,66.6,53.2,39.6,49.3,43.0,38.5,98,72,41,30.22,30.12,11,1,11,0.00
2013-1-22,61.0,48.7,37.4,41.7,35.3,28.0,93,63,33,30.37,30.19,11,2,13,0.00
2013-1-23,64.9,49.1,34.2,52.3,42.5,32.5,96,80,52,30.43,30.32,9,0,9,0.00
2013-1-24,70.9,55.9,41.0,58.8,51.0,39.9,98,85,63,30.36,30.25,14,1,14,0.00
2013-1-25,72.5,58.6,46.9,61.5,54.1,45.5,99,86,63,30.32,30.19,12,1,13,0.00
2013-1-26,74.3,61.2,50.4,64.6,57.6,49.3,99,89,69,30.27,30.19,11,1,11,0.01
2013-1-27,70.2,59.9,52.2,60.4,55.6,51.3,97,87,67,30.35,30.27,11,1,11,0.00
2013-1-28,70.2,64.3,53.6,64.9,61.8,52.5,98,92,83,30.33,30.19,13,1,13,0.01
2013-1-29,73.9,69.5,66.2,69.6,67.5,64.6,96,94,85,30.19,29.94,17,3,17,0.00
2013-1-30,74.8,65.2,46.4,72.0,61.4,35.4,96,88,66,30.11,29.68,30,6,31,0.11
2013-1-31,57.9,46.3,38.5,38.5,33.0,25.5,94,64,31,30.33,30.11,18,2,18,0.01
2013-2-1,62.2,51.4,41.0,44.6,36.8,25.7,91,59,35,30.40,30.31,16,2,16,0.00
2013-2-2,61.5,47.6,31.5,48.4,37.0,21.6,95,68,51,30.39,30.18,12,1,12,0.00
2013-2-3,67.1,54.9,45.3,50.2,44.6,35.1,98,72,32,30.27,30.13,14,1,15,0.01
2013-2-4,64.9,54.9,41.5,56.1,47.1,37.9,95,76,55,30.14,30.00,6,0,6,0.00
2013-2-5,68.2,60.3,54.9,61.9,57.7,53.8,98,91,75,30.05,29.97,11,0,13,0.24
2013-2-6,70.3,60.6,55.2,61.0,57.4,54.0,98,90,72,30.17,30.02,11,1,11,0.00
2013-2-7,73.6,64.0,55.4,67.3,60.4,53.6,99,89,66,30.06,29.78,23,2,27,0.01
2013-2-8,71.2,59.3,49.1,61.7,55.8,48.0,99,89,71,30.16,29.96,12,1,12,0.01
2013-2-9,62.2,54.0,45.1,52.3,48.0,42.6,97,81,56,30.27,30.16,10,1,10,0.01
2013-2-10,69.4,62.1,48.4,68.0,60.4,47.3,98,94,89,30.17,29.99,18,3,18,0.00
2013-2-11,78.1,66.1,58.5,72.1,64.2,56.3,97,94,77,30.12,30.02,14,2,14,0.01
2013-2-12,70.0,64.9,57.7,69.3,63.0,56.3,98,94,83,30.06,29.80,18,2,18,0.00
2013-2-13,69.4,58.0,47.8,68.9,53.7,46.0,98,86,63,30.08,29.80,18,3,18,0.00
2013-2-14,56.5,46.2,37.0,46.2,41.8,35.6,95,85,62,30.17,30.03,11,1,11,0.00
2013-2-15,65.5,50.3,34.3,47.5,41.8,33.4,98,76,43,30.18,30.04,9,1,10,0.00
2013-2-16,54.9,47.8,36.3,46.2,31.2,19.4,83,55,28,30.29,30.06,22,4,23,0.00
2013-2-17,54.1,40.0,27.1,34.7,27.0,14.0,90,64,24,30.41,30.30,11,1,11,0.03
2013-2-18,62.4,51.2,32.9,54.3,42.4,30.6,96,74,53,30.34,30.09,17,3,20,0.01
2013-2-19,68.4,60.7,39.4,62.6,50.3,31.3,97,71,35,30.22,30.03,17,2,19,0.01
2013-2-20,58.6,45.7,37.8,39.6,31.8,24.1,93,62,29,30.27,30.10,11,1,12,0.00
2013-2-21,65.8,54.8,36.7,64.6,47.7,33.4,96,78,48,30.13,29.94,16,2,16,0.00
2013-2-22,69.3,67.1,65.5,68.9,66.5,64.4,99,98,95,30.00,29.89,11,1,11,0.00
2013-2-23,69.6,63.1,57.4,69.1,62.3,56.3,99,97,93,29.96,29.79,12,1,13,0.00
2013-2-24,70.0,60.6,52.7,60.3,56.6,51.6,97,87,65,30.00,29.85,10,1,10,0.00
2013-2-25,68.2,62.3,58.3,64.9,60.8,57.4,98,95,79,29.90,29.55,18,3,23,0.00
2013-2-26,67.1,58.5,54.0,66.6,50.3,45.3,98,74,62,29.93,29.54,24,4,29,0.00
2013-2-27,63.9,53.6,45.1,47.5,45.0,40.6,96,75,49,30.04,29.93,12,1,13,0.00
2013-2-28,60.4,51.3,44.8,49.5,40.6,34.3,96,70,38,30.09,29.98,16,3,17,0.00
2013-3-1,54.9,47.2,40.3,41.7,36.4,32.4,79,66,49,30.14,30.02,11,2,12,0.00
2013-3-2,48.9,40.9,30.7,33.6,29.1,26.8,94,65,44,30.19,30.07,20,3,22,0.00
2013-3-3,52.3,41.7,34.0,31.6,27.7,24.3,89,59,34,30.22,30.12,16,3,18,0.00
2013-3-4,64.6,51.0,31.3,58.6,43.3,29.5,95,77,44,30.22,30.03,13,2,13,0.23
2013-3-5,74.5,63.4,48.4,63.9,57.1,41.2,96,81,62,30.14,29.95,21,3,21,0.23
2013-3-6,59.4,49.0,39.9,41.4,32.4,26.4,83,55,32,30.28,30.13,21,4,24,0.00
2013-3-7,63.3,47.7,34.3,45.1,36.6,30.6,94,69,37,30.35,30.22,14,1,14,0.00
2013-3-8,69.4,53.0,37.0,48.4,42.2,35.4,95,71,32,30.31,30.19,8,1,10,0.00
2013-3-9,65.7,56.5,43.5,57.7,50.2,41.9,97,80,64,30.25,30.09,16,2,16,0.00
2013-3-10,69.3,63.6,60.4,61.7,58.6,53.1,94,84,76,30.14,30.00,23,4,23,0.00
2013-3-11,69.6,60.0,47.7,65.1,57.6,43.7,96,92,85,30.00,29.82,22,4,22,0.40
2013-3-12,65.7,51.6,42.3,43.5,39.4,35.2,91,66,35,30.19,29.96,18,3,18,0.01
2013-3-13,66.2,52.2,38.1,41.4,34.7,23.5,94,57,23,30.35,30.19,19,2,19,0.08
2013-3-14,64.8,50.2,39.4,41.0,29.9,21.9,89,50,22,30.43,30.28,16,2,16,0.00
2013-3-15,69.6,53.4,37.0,54.0,44.8,35.4,97,76,34,30.33,30.17,15,2,18,0.00
2013-3-16,75.6,63.6,48.7,61.9,56.5,47.3,97,79,52,30.17,30.03,17,2,17,0.00
2013-3-17,71.6,61.8,53.1,66.2,59.8,51.6,98,93,80,30.05,29.95,11,1,12,0.00
2013-3-18,75.0,68.6,63.9,69.4,65.9,62.1,96,91,82,29.97,29.83,15,2,15,0.00
2013-3-19,76.8,66.1,55.8,68.0,59.2,53.2,96,80,56,30.05,29.89,13,1,14,0.00
2013-3-20,65.8,58.5,40.5,53.2,38.2,33.3,91,48,33,30.09,29.96,16,2,16,0.00
2013-3-21,66.9,53.1,39.0,44.1,33.4,18.0,91,53,16,30.09,29.92,13,2,15,0.00
2013-3-22,65.7,57.8,47.7,54.7,45.6,34.2,83,65,39,30.00,29.91,20,2,22,0.00
2013-3-23,68.9,64.8,61.3,67.3,60.4,47.7,98,86,57,29.91,29.62,18,2,21,0.23
2013-3-24,80.1,70.2,51.8,70.2,61.2,34.5,98,75,40,29.91,29.57,21,5,22,0.11
2013-3-25,60.4,49.9,40.6,37.8,29.0,21.2,72,47,24,30.22,29.91,22,5,26,0.01
2013-3-26,55.8,45.2,35.2,30.0,27.6,25.0,72,52,33,30.37,30.22,20,3,20,0.00
2013-3-27,61.9,46.2,32.0,40.6,31.9,27.0,91,61,30,30.44,30.29,12,2,12,0.04
2013-3-28,67.8,51.1,34.0,43.5,38.0,29.5,96,66,28,30.37,30.26,11,1,11,0.00
2013-3-29,72.7,56.1,38.8,53.8,44.5,34.3,97,71,30,30.36,30.24,11,1,11,0.00
2013-3-30,76.5,62.5,46.6,62.6,55.0,45.1,97,79,48,30.25,30.08,11,1,12,0.00
2013-3-31,79.9,69.0,57.0,66.7,63.4,55.6,97,83,58,30.09,29.92,11,1,11,0.00
2013-4-1,77.4,67.8,54.1,65.5,58.9,51.3,95,75,48,30.05,29.92,15,2,15,0.00
2013-4-2,77.5,63.5,48.6,57.7,51.6,45.3,97,70,34,30.15,30.04,11,1,13,0.00
2013-4-3,63.0,59.6,55.0,59.9,57.1,53.6,97,92,77,30.09,29.80,17,1,21,0.43
2013-4-4,73.9,64.6,58.8,64.8,60.9,57.7,97,89,70,29.96,29.86,12,2,13,0.07
2013-4-5,64.8,56.7,47.8,57.9,51.4,45.7,94,83,59,30.12,29.91,17,3,17,0.01
2013-4-6,72.3,58.0,43.3,57.0,49.9,42.3,97,77,47,30.20,30.10,10,1,10,0.00
2013-4-7,72.9,61.8,47.8,65.5,58.5,46.2,97,89,77,30.18,30.06,13,2,13,0.01
2013-4-8,76.8,69.0,61.5,68.4,64.7,60.1,97,87,67,30.13,30.02,16,2,16,0.00
2013-4-9,78.4,70.6,65.5,68.4,65.3,62.8,96,84,67,30.14,30.01,19,2,19,0.00
2013-4-10,78.3,70.9,65.5,70.2,66.3,61.5,94,86,75,30.09,29.93,15,2,16,0.00
2013-4-11,78.3,72.0,67.5,73.6,70.0,66.0,97,93,85,29.93,29.64,17,3,19,0.00
2013-4-12,76.3,64.4,52.7,66.0,53.9,46.4,97,73,35,29.99,29.75,19,3,19,0.01
2013-4-13,78.6,64.6,47.7,59.2,51.9,45.7,96,67,34,30.06,29.92,10,1,12,0.01
2013-4-14,67.5,63.2,59.2,65.1,60.8,57.0,96,92,83,29.97,29.65,21,1,26,0.81
2013-4-15,76.6,68.5,62.1,69.6,65.4,61.0,97,90,78,30.07,29.86,10,1,10,0.43
2013-4-16,81.0,71.7,63.7,70.0,66.8,62.4,96,85,69,30.15,30.05,14,1,14,0.04
2013-4-17,79.2,71.6,65.7,70.0,67.0,64.4,97,86,65,30.17,30.04,17,2,17,0.04
2013-4-18,77.5,71.4,63.7,71.6,67.8,61.9,96,89,81,30.04,29.93,17,3,17,0.00
2013-8-2,92.8,83.3,73.8,81.3,77.2,72.9,98,83,64,30.04,29.93,9,1,10,0.00
2013-8-3,94.3,85.2,78.3,81.1,79.0,76.6,96,82,64,30.08,29.99,13,1,13,0.00
2013-8-4,96.3,83.7,75.9,81.7,77.4,74.1,97,83,56,30.08,29.97,21,1,22,0.00
2013-8-5,95.2,83.5,74.1,81.0,76.6,72.7,97,81,51,30.04,29.94,12,1,12,0.00
2013-8-6,95.4,81.5,74.1,80.6,75.8,72.5,97,84,55,30.04,29.92,13,1,13,0.00
2013-8-7,94.3,82.0,72.7,80.4,76.1,71.4,97,84,59,30.00,29.91,10,1,15,0.00
2013-8-8,93.2,81.5,75.6,81.5,77.3,72.7,97,88,68,29.99,29.93,15,0,16,0.00
2013-8-9,90.7,82.3,76.3,81.9,77.8,74.7,98,87,66,30.08,29.97,11,1,12,0.00
2013-8-10,92.1,80.6,74.8,79.9,76.0,73.6,98,87,62,30.12,30.03,10,0,12,0.00
2013-8-11,91.9,83.0,74.7,80.1,77.1,73.8,98,84,64,30.16,30.09,11,1,11,0.00
2013-8-12,94.8,82.3,75.7,81.1,76.9,74.3,97,85,59,30.13,30.05,11,0,14,0.00
2013-8-13,90.0,79.5,75.4,80.4,76.2,72.5,98,90,68,30.07,29.96,17,1,21,0.00
2013-8-14,90.0,81.4,73.9,79.0,75.0,72.3,97,82,63,29.99,29.90,12,1,14,0.00
2013-8-15,90.3,79.2,73.8,78.4,75.2,72.5,97,88,66,29.99,29.91,12,1,12,0.00
2013-8-16,82.0,77.2,74.5,77.4,75.0,73.6,98,93,83,30.02,29.93,8,0,9,0.00
2013-8-17,74.8,72.6,70.7,73.9,71.7,69.4,98,97,90,30.04,29.94,10,1,13,0.00
2013-8-18,82.0,75.4,71.2,78.8,73.9,70.5,98,95,84,30.07,29.99,18,1,18,0.00
2013-8-19,90.9,83.3,71.8,80.6,77.8,71.4,99,84,70,30.07,29.99,10,1,11,0.00
2013-8-20,89.1,77.1,73.2,79.9,74.8,72.5,98,93,70,30.12,30.00,17,0,20,0.00
2013-8-21,90.9,79.4,71.8,79.2,74.3,70.5,99,85,64,30.15,30.06,11,1,11,0.00
2013-8-22,89.6,80.0,71.8,78.8,74.4,70.0,96,84,66,30.12,29.99,13,1,14,0.00
2013-8-23,75.0,74.1,73.6,73.8,73.2,72.7,98,97,95,30.04,29.96,3,0,3,0.00
2013-8-24,82.2,76.5,73.0,76.8,74.1,71.2,98,93,81,30.15,30.00,13,0,13,0.00
2013-8-25,85.8,78.3,72.7,77.2,74.2,71.6,98,88,71,30.22,30.12,9,1,12,0.00
2013-8-26,90.0,79.3,70.5,73.6,69.8,65.8,96,74,53,30.22,30.10,10,1,11,0.00
2013-8-27,90.7,78.1,66.9,74.5,69.0,64.6,93,75,53,30.13,30.03,9,0,9,0.00
2013-8-28,93.2,80.8,69.1,75.4,71.4,67.3,95,75,52,30.08,30.00,8,0,10,0.00
2013-8-29,93.7,81.9,70.0,75.6,72.2,68.5,96,74,51,30.08,29.97,11,1,12,0.00
2013-8-30,94.3,83.4,75.2,78.3,74.1,70.9,87,74,57,30.03,29.91,13,2,13,0.00
2013-8-31,89.4,79.4,73.9,79.3,75.1,72.9,97,87,71,29.96,29.87,13,1,14,0.00
2013-9-1,93.9,79.1,72.1,81.1,75.0,71.4,99,88,65,29.96,29.87,13,1,14,0.00
2013-9-2,92.5,78.3,73.6,80.8,75.6,71.6,99,92,61,30.01,29.91,17,0,17,0.00
2013-9-3,93.4,78.7,72.9,81.3,75.0,72.0,99,89,63,30.00,29.89,13,0,13,0.00
2013-9-4,93.0,80.6,71.6,79.9,75.6,70.9,99,86,62,30.09,29.97,11,0,11,0.00
2013-9-5,91.8,80.9,72.0,79.9,75.4,71.1,98,84,64,30.13,30.04,7,0,7,0.00
2013-9-6,95.9,82.2,72.3,75.9,72.8,70.2,98,76,49,30.10,29.99,7,0,8,0.00
2013-9-7,91.6,79.6,70.9,77.0,73.0,68.7,95,82,55,30.06,29.98,11,1,12,0.00
2013-9-8,94.5,80.7,70.2,76.5,72.0,69.3,99,78,48,30.02,29.94,8,0,8,0.00
2013-9-9,93.2,81.0,69.8,76.5,71.8,68.7,98,76,48,30.06,29.97,9,1,12,0.00
2013-9-10,90.3,81.1,73.4,77.2,73.1,70.2,92,78,58,30.14,30.04,13,1,13,0.00
2013-9-11,93.2,80.9,71.8,75.4,72.2,69.3,94,77,51,30.14,30.04,9,1,10,0.00
2013-9-12,91.9,81.0,72.3,76.5,73.2,70.2,95,79,59,30.05,29.93,10,0,10,0.00
2013-9-13,94.5,81.3,71.1,76.6,72.8,69.4,97,78,45,29.95,29.82,13,1,13,0.00
2013-9-14,89.2,80.1,72.9,74.1,70.8,67.1,91,74,56,30.00,29.86,7,1,8,0.00
2013-9-15,91.9,80.6,69.8,77.0,71.5,64.4,93,75,59,30.08,29.99,10,0,11,0.00
2013-9-16,90.5,79.5,73.2,79.9,74.8,69.6,97,86,64,30.09,30.01,16,1,16,0.15
2013-9-17,91.9,80.1,71.6,78.6,74.1,70.5,97,83,59,30.08,29.99,10,1,11,0.16
2013-9-18,86.5,78.3,73.0,78.1,73.4,70.7,95,86,66,30.11,30.02,10,1,10,0.00
2013-9-19,87.6,78.8,70.9,74.1,71.4,68.2,93,79,58,30.10,30.01,11,1,12,0.00
2013-9-20,88.5,79.9,70.7,79.5,74.4,68.5,95,84,66,30.04,29.88,13,1,15,0.00
2013-9-21,81.9,77.5,73.9,78.8,75.3,72.7,98,93,79,29.88,29.74,21,1,21,0.00
2013-9-22,81.7,74.0,69.8,75.2,72.1,68.7,98,94,80,29.82,29.74,9,1,9,0.01
2013-9-23,90.0,79.4,72.3,79.5,74.7,71.1,97,86,64,29.91,29.79,9,1,10,0.01
2013-9-24,84.2,77.0,72.0,78.6,75.0,70.7,98,94,80,29.92,29.79,10,0,11,0.00
2013-9-25,86.7,76.5,70.5,78.8,73.4,69.1,99,91,68,29.83,29.75,10,1,12,0.00
2013-9-26,86.5,75.8,67.5,74.5,69.9,66.6,98,83,57,29.97,29.81,9,1,9,0.00
2013-9-27,85.1,73.1,63.1,68.0,64.9,61.5,97,78,51,30.06,29.96,9,1,11,0.00
2013-9-28,85.5,71.4,61.3,68.0,62.9,58.6,92,76,50,30.11,30.02,10,1,13,0.00
2013-9-30,77.0,73.5,71.1,72.7,70.7,68.7,93,91,86,30.01,29.97,0,0,1,0.00
2013-10-1,85.5,74.3,66.7,74.8,69.7,65.3,96,87,67,30.08,29.99,10,1,11,0.00
2013-10-2,75.9,73.6,72.1,74.8,72.3,70.2,98,96,91,30.09,30.02,6,0,8,0.00
2013-10-3,85.8,77.0,68.2,76.8,72.9,67.3,98,88,72,30.09,30.00,12,1,12,0.00
2013-10-4,86.9,79.2,72.7,78.3,74.3,70.5,97,86,64,30.09,30.01,11,1,12,0.00
2013-10-5,87.1,80.2,73.8,79.0,75.4,73.0,98,86,68,30.06,29.96,13,1,14,0.00
2013-10-6,83.5,75.9,71.8,75.2,73.0,70.9,98,91,74,29.97,29.81,13,0,15,0.00
2013-10-7,79.0,69.1,61.3,71.2,60.8,55.6,98,77,51,29.98,29.83,16,3,19,0.00
2013-10-8,83.8,69.1,54.9,68.9,61.0,52.3,94,77,56,30.01,29.94,8,1,10,0.00
2013-10-9,79.3,70.7,63.9,69.1,65.8,62.1,95,85,70,30.12,30.00,11,1,11,0.00
2013-10-10,83.8,70.8,60.3,69.8,65.3,59.2,98,84,61,30.12,30.02,10,0,12,0.00
2013-10-11,87.3,75.3,62.8,71.1,66.9,61.9,97,77,51,30.06,29.98,8,1,9,0.00
2013-10-12,86.4,73.5,62.4,72.1,66.7,61.5,99,82,53,30.10,30.01,10,1,10,0.00
2013-10-13,85.5,73.6,64.6,66.9,64.4,60.4,98,76,46,30.17,30.07,11,1,12,0.00
2013-10-14,85.5,73.4,63.9,70.0,65.3,60.6,94,77,51,30.13,30.03,9,0,9,0.00
2013-10-15,83.3,70.8,61.3,70.0,65.0,59.9,96,83,63,30.09,29.98,9,0,9,0.00
2013-10-16,84.6,71.7,61.3,71.8,66.1,60.4,98,84,63,30.04,29.94,7,0,7,0.00
2013-10-17,85.5,74.3,65.8,76.5,70.3,64.8,98,88,65,29.99,29.90,10,1,10,0.00
2013-10-18,78.6,70.5,65.8,69.4,66.3,63.1,95,87,71,30.03,29.93,11,1,13,0.00
2013-10-19,72.7,68.3,64.0,67.5,64.2,58.6,94,87,74,30.01,29.91,11,1,11,0.00
2013-10-20,76.5,65.5,57.7,63.1,58.9,56.3,96,81,56,30.06,29.96,11,1,14,0.00
2013-10-21,71.4,66.1,61.9,65.3,60.8,56.5,92,83,75,30.07,29.97,6,0,7,0.00
2013-10-22,76.5,66.9,62.1,66.6,63.4,57.7,97,89,65,30.00,29.89,8,0,8,0.00
2013-10-23,73.2,62.9,52.2,57.9,50.7,43.2,94,68,36,30.13,29.95,20,2,20,0.00
2013-10-24,75.6,59.5,45.5,56.3,48.9,42.4,95,71,37,30.25,30.12,7,0,8,0.00
2013-10-25,68.2,57.2,49.6,52.0,46.0,37.6,97,69,37,30.38,30.21,17,2,17,0.00
2013-10-26,71.2,55.5,43.0,50.7,41.7,35.2,93,63,32,30.32,30.18,7,1,7,0.00
2013-10-27,74.7,59.4,43.9,58.5,51.3,42.6,97,77,44,30.20,30.11,7,0,8,0.00
2013-10-28,78.3,65.1,52.9,61.7,57.3,51.6,97,78,51,30.24,30.12,9,0,9,0.00
2013-10-29,77.7,64.6,52.2,67.1,59.1,51.1,98,84,56,30.29,30.20,13,1,13,0.00
2013-10-30,78.6,68.0,56.1,71.4,64.8,55.0,98,90,78,30.25,30.12,12,1,14,0.00
2013-10-31,83.7,77.0,70.9,74.3,71.4,67.5,91,83,72,30.12,29.91,11,2,16,0.00
2013-11-1,77.2,72.6,63.7,74.8,70.4,61.9,97,93,87,29.91,29.81,11,2,17,0.00
2013-11-2,76.5,64.3,53.2,61.9,52.9,46.8,95,69,41,30.12,29.89,12,1,13,0.00
2013-11-3,68.7,55.7,46.6,49.3,44.8,41.0,91,70,38,30.24,30.11,12,1,13,0.00
2013-11-4,74.7,61.9,47.7,60.4,51.8,42.8,85,70,52,30.30,30.20,10,1,11,0.00
2013-11-5,77.4,65.7,55.8,61.3,54.9,47.3,77,68,56,30.30,30.17,11,1,12,0.00
2013-11-6,75.6,66.3,58.1,66.9,61.6,53.2,95,85,74,30.19,30.09,10,0,10,0.00
2013-11-7,68.9,61.0,50.2,67.5,57.1,41.2,97,87,71,30.22,30.04,19,3,19,0.00
2013-11-8,65.1,52.8,44.1,44.6,39.6,35.4,90,63,39,30.30,30.18,21,3,21,0.00
2013-11-9,73.2,58.2,43.7,60.8,51.5,40.1,96,79,60,30.26,30.18,9,0,9,0.00
2013-11-10,76.6,62.5,52.9,62.4,56.2,50.7,96,81,56,30.27,30.17,11,1,11,0.00
2013-11-11,76.8,59.7,46.6,53.8,49.2,45.0,95,73,35,30.25,30.15,8,0,8,0.00
2013-11-12,72.9,57.9,42.6,53.1,45.9,26.6,96,66,45,30.41,30.15,18,4,20,0.00
2013-11-13,55.2,42.9,35.1,31.8,25.8,22.1,79,52,30,30.49,30.39,19,3,19,0.00
2013-11-14,65.8,49.6,32.4,52.5,40.0,25.0,92,70,52,30.43,30.19,7,0,8,0.00
2013-11-15,70.9,62.9,56.3,65.8,59.0,48.7,94,87,74,30.19,30.03,14,1,16,0.00
2013-11-16,72.9,66.8,61.2,67.1,63.7,59.7,96,90,78,30.13,30.03,14,1,15,0.00
2013-11-17,81.3,72.9,68.2,75.6,71.0,66.9,98,94,81,30.04,29.96,14,2,14,0.04
2013-11-18,73.8,70.1,61.9,73.2,67.5,46.4,98,92,57,30.05,29.95,8,1,9,0.01
2013-11-19,62.4,53.8,50.5,46.6,42.8,41.5,74,67,52,30.09,30.04,5,1,11,0.01
2013-11-20,69.8,60.1,55.9,58.8,54.8,52.2,87,83,68,30.19,30.07,8,0,10,0.00
2013-11-21,66.6,61.6,55.0,62.8,57.6,51.6,92,87,80,30.26,30.18,8,1,11,0.00
2013-11-22,72.7,67.8,62.2,66.6,64.7,60.3,97,90,80,30.27,30.14,7,0,7,0.00
2013-11-23,71.4,63.7,53.4,65.7,59.9,42.3,97,88,67,30.24,30.13,14,2,15,0.00
2013-11-24,56.5,49.6,43.2,42.3,33.0,26.8,66,53,37,30.35,30.24,21,4,23,0.00
2013-11-25,63.0,51.4,43.9,61.9,43.1,32.0,97,74,58,30.32,29.94,18,2,21,0.00
2013-11-26,70.0,58.0,46.0,69.4,56.8,44.6,98,96,93,29.94,29.68,24,5,28,0.00
2013-11-27,47.8,41.7,32.4,44.6,34.3,26.1,96,76,53,30.37,29.87,25,5,26,0.00
2013-11-28,51.4,38.0,27.7,34.2,26.2,22.3,94,66,33,30.48,30.36,9,1,12,0.01
2013-11-29,60.4,41.3,29.3,38.7,31.8,27.9,94,73,34,30.54,30.42,12,1,12,0.04
2013-11-30,66.4,53.6,31.8,50.7,44.6,30.7,97,75,46,30.45,30.28,7,0,9,0.03
2013-12-2,67.1,56.5,49.3,57.4,53.6,47.8,96,90,70,30.04,29.83,5,0,5,0.01
2013-12-3,77.5,64.7,52.0,68.5,60.7,50.9,98,88,71,29.89,29.82,13,1,13,0.00
2013-12-4,76.8,69.9,62.8,72.3,68.5,61.7,99,96,83,30.01,29.90,12,1,12,0.01
2013-12-5,77.4,73.4,71.6,73.9,72.0,71.1,99,95,88,30.09,30.00,14,1,14,0.00
2013-12-6,79.2,74.0,71.8,74.5,72.1,70.9,98,94,85,30.12,30.01,14,2,19,0.01
2013-12-7,72.7,52.4,48.4,72.1,50.1,46.6,98,92,84,30.27,30.11,14,4,14,0.00
2013-12-8,76.1,63.4,48.9,71.8,62.4,48.0,99,97,86,30.22,30.08,9,1,10,0.00
2013-12-9,74.1,69.5,64.0,71.8,68.6,63.5,99,97,87,30.12,30.05,9,0,11,0.00
2013-12-10,68.4,50.9,40.6,68.0,47.7,37.0,99,89,71,30.35,30.04,21,3,24,0.00
2013-12-11,61.2,49.0,37.6,50.2,41.8,33.4,93,77,58,30.39,30.30,10,1,10,0.00
2013-12-12,52.0,44.3,38.3,44.2,35.5,27.5,79,71,55,30.46,30.36,7,0,9,0.00
2013-12-13,59.5,47.5,32.2,50.0,37.5,25.5,85,68,52,30.37,30.05,11,1,12,0.00
2013-12-14,74.5,65.9,55.0,69.6,62.3,49.3,97,88,66,30.06,29.86,18,2,18,0.00
2013-12-15,59.2,45.2,34.5,56.7,40.7,32.5,94,84,70,30.29,29.92,18,4,19,0.00
2013-12-16,59.7,43.2,31.5,45.1,36.6,30.2,95,80,46,30.34,30.25,8,1,8,0.01
2013-12-17,64.6,46.7,33.1,45.5,39.1,32.0,98,78,39,30.35,30.23,11,1,11,0.00
2013-12-18,65.1,49.5,39.0,43.2,38.6,31.5,96,71,31,30.38,30.28,11,1,13,0.00
2013-12-19,65.1,54.9,39.0,59.0,50.0,36.3,94,84,71,30.30,30.14,13,1,14,0.00
2013-12-20,72.0,63.8,54.0,67.1,61.8,52.9,98,93,84,30.17,30.05,12,1,12,0.00
2013-12-21,75.6,70.9,66.6,72.0,69.5,65.7,99,96,88,30.05,29.92,17,3,17,0.00
2013-12-22,76.5,70.1,55.2,73.6,68.3,54.1,97,94,88,30.10,29.92,15,3,17,0.00
2013-12-23,56.5,50.8,40.6,55.0,48.4,35.8,98,92,82,30.37,30.07,18,4,19,0.00
2013-12-24,54.0,41.5,32.4,36.0,31.9,28.2,89,71,41,30.48,30.35,16,3,18,0.00
2013-12-25,53.8,41.9,30.7,37.4,31.5,25.7,84,68,40,30.40,30.28,9,1,10,0.43
2013-12-26,58.6,49.0,40.3,46.8,41.0,37.0,89,74,61,30.34,30.24,17,2,17,0.04
2013-12-27,61.2,52.9,44.4,46.0,40.2,36.1,80,63,47,30.38,30.27,13,2,15,0.00
2013-12-28,61.7,52.6,47.8,61.2,50.7,43.2,98,94,66,30.28,29.84,14,1,17,0.00
2013-12-29,56.5,49.7,42.4,51.4,47.8,41.2,98,93,81,30.14,29.91,15,2,15,0.00
2013-12-30,59.5,49.2,38.8,52.9,47.0,38.1,99,93,72,30.28,30.13,4,0,5,0.00
2013-12-31,52.0,47.4,45.1,49.8,44.1,41.5,93,88,82,30.42,30.27,10,2,11,0.00
2014-1-1,61.5,52.0,45.1,57.0,49.8,42.8,97,92,82,30.35,30.05,8,0,8,0.00
2014-1-2,59.0,51.6,36.5,58.1,47.8,28.8,98,87,69,30.27,29.91,23,4,26,0.00